DW8946 Weather Reports


time (UTC)temp
C
wind
direction
speed
KPH
gust
KPH
rain 1hr
cm
rain 24hr
cm
rain mn
cm
humidity
%
barometer
mb
20260505112211 11 90 0.0 3.2 0.00 0.00 0.00 97 1019.6
20260505111706 12 276 1.6 4.8 0.00 0.00 0.00 95 1019.6
20260505111201 12 15 0.0 1.6 0.00 0.00 0.00 94 1019.9
20260505110658 12 82 0.0 1.6 0.00 0.00 0.00 93 1019.8
20260505110155 12 345 0.0 1.6 0.00 0.00 0.00 93 1019.6
20260505102131 11 29 1.6 3.2 0.00 0.00 0.00 93 1019.3
20260505101630 12 5 0.0 3.2 0.00 0.00 0.00 93 1019.3
20260505101126 12 6 0.0 4.8 0.00 0.00 0.00 93 1019.3
20260505100622 12 0 1.6 4.8 0.00 0.00 0.00 93 1019.3
20260505100119 12 240 3.2 4.8 0.00 0.00 0.00 93 1019.5
20260505095615 12 105 0.0 1.6 0.00 0.00 0.00 94 1019.5
20260505095112 11 246 0.0 3.2 0.00 0.00 0.00 94 1019.3
20260505094608 11 82 1.6 3.2 0.00 0.00 0.00 94 1019.3
20260505094104 11 319 0.0 3.2 0.00 0.00 0.00 93 1019.3
20260505093601 11 41 3.2 3.2 0.00 0.00 0.00 94 1019.3
20260505093058 12 0 3.2 4.8 0.00 0.00 0.00 94 1019.3
20260505092555 11 215 1.6 3.2 0.00 0.00 0.00 94 1019.2
20260505092054 11 90 1.6 3.2 0.00 0.00 0.00 94 1018.8
20260505091550 11 319 3.2 4.8 0.00 0.00 0.00 94 1018.9
20260505091049 11 270 0.0 3.2 0.00 0.00 0.00 94 1018.8
20260505090546 11 328 0.0 4.8 0.00 0.00 0.00 94 1018.7
20260505090044 11 337 1.6 3.2 0.00 0.00 0.00 95 1018.6
20260505085542 11 66 0.0 3.2 0.00 0.00 0.00 94 1018.8
20260505085040 11 96 0.0 4.8 0.00 0.00 0.00 94 1018.4
20260505084537 11 131 0.0 3.2 0.00 0.00 0.00 95 1018.4
20260505084035 11 29 0.0 3.2 0.00 0.00 0.00 95 1018.3
20260505083532 11 75 0.0 4.8 0.00 0.00 0.00 95 1018.2
20260505083029 11 63 3.2 4.8 0.00 0.00 0.00 95 1018.0
20260505082524 11 0 0.0 1.6 0.00 0.00 0.00 95 1018.0
20260505082021 11 68 3.2 3.2 0.00 0.00 0.00 95 1018.0
20260505081518 11 54 0.0 1.6 0.00 0.00 0.00 94 1018.0
20260505081015 11 340 0.0 3.2 0.00 0.00 0.00 94 1018.2
20260505080511 11 291 1.6 3.2 0.00 0.00 0.00 94 1018.3
20260505080008 11 195 1.6 6.4 0.00 0.00 0.00 94 1018.3
20260505075504 11 0 0.0 4.8 0.00 0.00 0.00 94 1018.6
20260505075001 11 157 1.6 3.2 0.00 0.00 0.00 94 1018.4
20260505074458 11 70 3.2 3.2 0.00 0.00 0.00 94 1018.4
20260505073955 11 90 0.0 1.6 0.00 0.00 0.00 94 1018.3
20260505073453 11 15 0.0 1.6 0.00 0.00 0.00 94 1018.2
20260505072950 11 261 0.0 3.2 0.00 0.00 0.00 93 1018.3
20260505072446 11 320 0.0 4.8 0.00 0.00 0.00 93 1018.1
20260505071942 11 128 3.2 4.8 0.00 0.00 0.00 93 1017.9
20260505071438 11 228 3.2 6.4 0.00 0.00 0.00 93 1018.0
20260505070937 11 139 0.0 4.8 0.00 0.00 0.00 92 1017.8
20260505070433 11 32 0.0 4.8 0.00 0.00 0.00 92 1017.7
20260505065929 11 14 3.2 4.8 0.00 0.00 0.00 92 1017.6
20260505065425 12 83 1.6 6.4 0.00 0.00 0.00 92 1017.6
20260505064922 12 56 3.2 3.2 0.00 0.00 0.00 91 1017.5
20260505064419 12 292 16.1 16.1 0.00 0.00 0.00 91 1017.5
20260505063918 12 82 3.2 8.0 0.00 0.00 0.00 91 1017.3
20260505063413 12 194 1.6 6.4 0.00 0.00 0.00 90 1017.2
20260505062910 12 199 4.8 9.7 0.00 0.00 0.00 90 1017.3
20260505062408 12 268 6.4 9.7 0.00 0.00 0.00 90 1017.2
20260505061904 12 175 1.6 9.7 0.00 0.00 0.00 89 1017.2
20260505061403 12 284 6.4 8.0 0.00 0.00 0.00 89 1017.2
20260505060859 12 289 3.2 17.7 0.00 0.00 0.00 88 1016.9
20260505060356 13 244 8.0 8.0 0.00 0.00 0.00 87 1017.4
20260505055852 13 180 1.6 12.9 0.00 0.00 0.00 86 1016.9
20260505055348 13 238 11.3 11.3 0.00 0.00 0.00 85 1016.9
20260505054846 13 260 4.8 11.3 0.00 0.00 0.00 85 1016.9
20260505054343 13 229 3.2 9.7 0.00 0.00 0.00 84 1016.9
20260505053841 13 270 0.0 11.3 0.00 0.00 0.00 83 1016.9
20260505053338 14 247 4.8 11.3 0.00 0.00 0.00 82 1016.8
20260505052834 14 247 8.0 8.0 0.00 0.00 0.00 82 1016.9
20260505052331 14 236 3.2 4.8 0.00 0.00 0.00 82 1017.2
20260505051828 15 240 0.0 3.2 0.00 0.00 0.00 81 1016.9
20260505051326 15 220 3.2 3.2 0.00 0.00 0.00 80 1016.9
20260505050824 15 270 0.0 4.8 0.00 0.00 0.00 79 1016.9
20260505050322 15 245 3.2 4.8 0.00 0.00 0.00 79 1016.8
20260505041752 16 161 3.2 8.0 0.00 0.00 0.00 74 1016.3
20260505041249 17 356 6.4 6.4 0.00 0.00 0.00 73 1016.4
20260505040747 17 35 1.6 8.0 0.00 0.00 0.00 73 1016.3
20260505040244 17 178 0.0 11.3 0.00 0.00 0.00 72 1016.2
20260505035741 17 270 3.2 6.4 0.00 0.00 0.00 72 1016.1
20260505035236 17 348 0.0 11.3 0.00 0.00 0.00 71 1015.7
20260505034733 17 348 1.6 11.3 0.00 0.00 0.00 70 1015.9
20260505034230 18 336 3.2 12.9 0.00 0.00 0.00 70 1015.9
20260505033727 18 342 0.0 8.0 0.00 0.00 0.00 70 1015.9
20260505033225 18 14 0.0 4.8 0.00 0.00 0.00 69 1015.6
20260505032723 18 5 3.2 11.3 0.00 0.00 0.00 68 1015.7
20260505032218 18 305 4.8 8.0 0.00 0.00 0.00 68 1015.8
20260505031716 18 281 4.8 11.3 0.00 0.00 0.00 67 1015.7
20260505031212 19 7 8.0 8.0 0.00 0.00 0.00 67 1015.6
20260505030709 19 291 1.6 11.3 0.00 0.00 0.00 66 1015.6
20260505030205 20 300 8.0 8.0 0.00 0.00 0.00 65 1015.2
20260505025701 20 339 3.2 8.0 0.00 0.00 0.00 65 1015.2
20260505025159 20 305 4.8 11.3 0.00 0.00 0.00 63 1015.2
20260505024657 21 326 9.7 14.5 0.00 0.00 0.00 61 1015.2
20260505024154 21 283 1.6 14.5 0.00 0.00 0.00 61 1014.8
20260505023651 22 66 0.0 6.4 0.00 0.00 0.00 60 1014.8
20260505023149 22 306 0.0 4.8 0.00 0.00 0.00 59 1014.7
20260505022646 23 7 1.6 4.8 0.00 0.00 0.00 60 1014.7
20260505022143 23 297 6.4 14.5 0.00 0.00 0.00 59 1014.9
20260505021639 24 315 3.2 6.4 0.00 0.00 0.00 60 1014.7
20260505021136 23 348 0.0 6.4 0.00 0.00 0.00 61 1014.7
20260505020632 23 259 6.4 9.7 0.00 0.00 0.00 61 1014.8
20260505020128 24 280 0.0 9.7 0.00 0.00 0.00 59 1014.7
20260505015626 25 341 3.2 4.8 0.00 0.00 0.00 57 1014.7
20260505015122 24 297 0.0 6.4 0.00 0.00 0.00 59 1014.6
20260505014619 25 36 3.2 8.0 0.00 0.00 0.00 57 1014.7
20260505014116 24 312 3.2 8.0 0.00 0.00 0.00 59 1014.8
20260505013613 24 5 4.8 6.4 0.00 0.00 0.00 57 1015.3
20260505013110 24 248 4.8 9.7 0.00 0.00 0.00 59 1014.9
20260505012609 24 230 6.4 9.7 0.00 0.00 0.00 59 1015.1
20260505012105 25 281 3.2 4.8 0.00 0.00 0.00 57 1015.2
20260505011600 24 270 3.2 9.7 0.00 0.00 0.00 59 1015.5
20260505011058 23 267 6.4 9.7 0.00 0.00 0.00 58 1015.8
20260505010553 25 231 4.8 6.4 0.00 0.00 0.00 57 1015.6
20260505010050 24 275 3.2 8.0 0.00 0.00 0.00 57 1015.5
20260505005546 25 195 1.6 6.4 0.00 0.00 0.00 56 1015.5
20260505005044 24 290 3.2 9.7 0.00 0.00 0.00 59 1015.5
20260505004541 24 90 0.0 11.3 0.00 0.00 0.00 58 1015.5
20260505004038 25 186 8.0 9.7 0.00 0.00 0.00 57 1015.5
20260505003535 24 255 1.6 11.3 0.00 0.00 0.00 57 1015.9
20260505003032 23 152 4.8 9.7 0.00 0.00 0.00 58 1015.9
20260505002526 24 277 1.6 9.7 0.00 0.00 0.00 57 1016.0
20260505002026 24 263 1.6 9.7 0.00 0.00 0.00 57 1015.8
20260505001523 24 188 6.4 11.3 0.00 0.00 0.00 57 1015.9
20260505001020 25 270 3.2 6.4 0.00 0.00 0.00 56 1016.1
20260505000517 24 189 4.8 9.7 0.00 0.00 0.00 56 1016.0
20260505000015 24 234 0.0 8.0 0.00 0.00 0.00 57 1016.0
20260504235511 23 225 4.8 14.5 0.00 0.00 0.00 59 1016.2
20260504235008 24 253 6.4 6.4 0.00 0.00 0.00 57 1016.1
20260504234505 24 117 0.0 8.0 0.00 0.00 0.00 58 1016.0
20260504234002 24 99 0.0 8.0 0.00 0.00 0.00 57 1016.2
20260504233457 24 165 0.0 6.4 0.00 0.00 0.00 57 1016.5
20260504232954 23 258 11.3 12.9 0.00 0.00 0.00 59 1016.2
20260504232451 22 4 3.2 8.0 0.00 0.00 0.00 60 1016.3
20260504231949 23 281 4.8 11.3 0.00 0.00 0.00 59 1016.4
20260504231445 23 253 9.7 11.3 0.00 0.00 0.00 57 1016.4
20260504230941 23 281 3.2 6.4 0.00 0.00 0.00 59 1016.3
20260504230438 22 253 4.8 12.9 0.00 0.00 0.00 61 1016.6
20260504225937 23 210 3.2 12.9 0.00 0.00 0.00 60 1016.6
20260504225433 23 0 0.0 8.0 0.00 0.00 0.00 58 1016.6
20260504224931 23 346 4.8 8.0 0.00 0.00 0.00 58 1016.9
20260504224427 22 173 8.0 11.3 0.00 0.00 0.00 61 1016.9
20260504223925 22 98 4.8 14.5 0.00 0.00 0.00 60 1017.1
20260504223420 22 283 0.0 11.3 0.00 0.00 0.00 62 1017.2
20260504222916 22 147 8.0 9.7 0.00 0.00 0.00 60 1017.2
20260504222414 23 200 4.8 4.8 0.00 0.00 0.00 59 1017.1
20260504221911 22 203 4.8 8.0 0.00 0.00 0.00 61 1017.2
20260504221408 22 315 3.2 12.9 0.00 0.00 0.00 61 1017.4
20260504220905 22 276 8.0 8.0 0.00 0.00 0.00 61 1017.4
20260504220401 21 72 8.0 9.7 0.00 0.00 0.00 63 1017.4
20260504215859 21 109 11.3 12.9 0.00 0.00 0.00 63 1017.1
20260504215355 22 127 3.2 11.3 0.00 0.00 0.00 62 1017.2
20260504214852 21 130 9.7 14.5 0.00 0.00 0.00 63 1017.4
20260504214348 21 214 4.8 14.5 0.00 0.00 0.00 65 1017.2
20260504213845 20 151 6.4 12.9 0.00 0.00 0.00 65 1017.4
20260504213341 20 118 11.3 16.1 0.00 0.00 0.00 64 1017.3
20260504212838 21 93 4.8 12.9 0.00 0.00 0.00 64 1017.4
20260504212334 20 256 4.8 12.9 0.00 0.00 0.00 64 1017.4
20260504211832 20 175 4.8 8.0 0.00 0.00 0.00 65 1017.6
20260504211328 20 90 6.4 20.9 0.00 0.00 0.00 66 1017.7
20260504210826 21 144 4.8 14.5 0.00 0.00 0.00 62 1017.7
20260504210322 21 220 8.0 8.0 0.00 0.00 0.00 63 1017.6
20260504205820 20 90 4.8 11.3 0.00 0.00 0.00 66 1017.9
20260504205318 20 126 4.8 11.3 0.00 0.00 0.00 68 1017.9
20260504204815 21 90 4.8 6.4 0.00 0.00 0.00 63 1018.1
20260504204314 20 90 4.8 8.0 0.00 0.00 0.00 66 1017.8
20260504203813 19 253 11.3 12.9 0.00 0.00 0.00 67 1017.6
20260504203309 19 138 4.8 12.9 0.00 0.00 0.00 68 1017.7
20260504202804 18 212 4.8 14.5 0.00 0.00 0.00 70 1017.8
20260504202304 19 327 8.0 16.1 0.00 0.00 0.00 69 1018.0
20260504201759 18 122 6.4 9.7 0.00 0.00 0.00 70 1018.3
20260504201256 18 226 6.4 9.7 0.00 0.00 0.00 69 1018.0
20260504200754 18 187 4.8 12.9 0.00 0.00 0.00 72 1017.8
20260504200249 18 257 3.2 17.7 0.00 0.00 0.00 72 1018.1
20260504195746 19 135 6.4 9.7 0.00 0.00 0.00 69 1018.1
20260504195242 19 155 12.9 12.9 0.00 0.00 0.00 70 1017.8
20260504194739 17 192 8.0 14.5 0.00 0.00 0.00 72 1017.9
20260504194235 17 258 3.2 11.3 0.00 0.00 0.00 73 1018.2
20260504193731 18 145 9.7 14.5 0.00 0.00 0.00 74 1018.4
20260504193229 17 201 0.0 16.1 0.00 0.00 0.00 73 1018.6
20260504192727 17 86 9.7 14.5 0.00 0.00 0.00 74 1018.4
20260504192225 17 180 3.2 12.9 0.00 0.00 0.00 74 1018.9
20260504191724 17 113 3.2 11.3 0.00 0.00 0.00 74 1018.6
20260504191220 17 94 8.0 17.7 0.00 0.00 0.00 75 1018.7
20260504190715 17 138 8.0 20.9 0.00 0.00 0.00 74 1018.8
20260504190212 17 121 6.4 17.7 0.00 0.00 0.00 74 1018.9
20260504185709 16 121 9.7 14.5 0.00 0.00 0.00 76 1018.9
20260504185205 16 122 14.5 19.3 0.00 0.00 0.00 77 1018.7
20260504184701 17 128 12.9 12.9 0.00 0.00 0.00 74 1018.6
20260504184156 17 312 3.2 14.5 0.00 0.00 0.00 75 1018.6
20260504183653 17 106 9.7 14.5 0.00 0.00 0.00 73 1018.7
20260504183151 16 99 8.0 8.0 0.00 0.00 0.00 77 1018.9
20260504182648 16 77 6.4 14.5 0.00 0.00 0.00 78 1018.5
20260504182146 16 153 9.7 16.1 0.00 0.00 0.00 76 1018.4
20260504181644 15 113 8.0 16.1 0.00 0.00 0.00 80 1018.4
20260504181141 15 136 12.9 16.1 0.00 0.00 0.00 79 1018.4
20260504180640 16 229 4.8 12.9 0.00 0.00 0.00 76 1018.8
20260504180138 16 137 6.4 9.7 0.00 0.00 0.00 78 1018.5
20260504175635 15 203 6.4 11.3 0.00 0.00 0.00 78 1018.5
20260504175131 15 110 3.2 14.5 0.00 0.00 0.00 79 1018.4
20260504174630 15 150 4.8 17.7 0.00 0.00 0.00 80 1018.3
20260504174126 15 241 19.3 19.3 0.00 0.00 0.00 78 1018.5
20260504173623 15 196 8.0 16.1 0.00 0.00 0.00 80 1018.6
20260504173121 15 128 4.8 8.0 0.00 0.00 0.00 81 1018.7
20260504172617 15 174 1.6 19.3 0.00 0.00 0.00 82 1018.7
20260504172114 15 153 4.8 11.3 0.00 0.00 0.00 81 1019.0
20260504171610 15 100 4.8 17.7 0.00 0.00 0.00 82 1019.3
20260504171108 15 98 12.9 17.7 0.00 0.00 0.00 80 1019.1
20260504170603 15 107 12.9 17.7 0.00 0.00 0.00 81 1019.0
20260504150947 15 139 8.0 17.7 0.00 0.00 0.00 82 1017.7
20260504150443 15 102 3.2 8.0 0.00 0.00 0.00 82 1017.8
20260504140910 13 124 6.4 19.3 0.00 0.00 0.00 85 1016.7
20260504140406 13 139 11.3 16.1 0.00 0.00 0.00 85 1016.7
20260504130331 13 110 8.0 11.3 0.00 0.00 0.00 87 1015.6
20260504120254 11 81 0.0 3.2 0.00 0.00 0.00 96 1014.7